Zurück zum Katalog

STARLINK-30272

AktivKommunikationVLEO
NORAD 57860·PAYLOAD·🇺🇸 United States

Gestartet Sep 12, 2023 von Vandenberg Space Force Base

Loading…

Nächste Überflüge (nächste 24 Stunden)

TLE

AktuellSource: CelesTrak SupGP

Epoche: Sep 14, 2026, 21:02 UTC

1 57860C 23141W   26257.87687500 -.00046788  00000+0 -15045-2 0  2578
2 57860  53.1575 123.8958 0001338  88.6705 290.9308 15.31726217    16

Verfolge STARLINK-30272 in Echtzeit mit AllMySat

Download on the App Store